"Pseudo-MPEC" for P10Lo2n

Created 2019 Jan 17 12:18:41 UT using Find_Orb

Click here for an explanation of pseudo-MPECs

 
 Astrometry: 
     P10Lo2n  C2019 01 10,b#AstrometryTdZLGp]_;L)+8redacted;tufB[*pi:x6`mT%MLF51
     P10Lo2n  C2019 01 10f9?8clickB$+BRbub$YhN\L8\g,herejF3JL1A8J:+F?6BKp+FXcF51
     P10Lo2n  C2019 01 108[7NN+4rQGCforXYp]YU*RkL#W$tu]O3sgQ!o7igB60I)KaknL=KF51
     P10Lo2n  C2019 01 10O$gF7:gB;\3*IVt40x=[_YP'hGR0P\LexplanationTIrEc9BXuUF51
     P10Lo2n  C2019 01 12.41279 10 23 19.02 +28 50 55.9    ~1CBI 21.9 GVNEOCPI52
     P10Lo2n  C2019 01 12.41612 10 23 18.92 +28 50 59.6    ~1CBI 21.5 GVNEOCPI52
     P10Lo2n  C2019 01 12.41944 10 23 18.78 +28 51 02.8    ~1CBI 22.2 GVNEOCPI52
     P10Lo2n  C2019 01 12.42277 10 23 18.73 +28 51 06.6    ~1CBI 21.9 GVNEOCPI52
     P10Lo2n  C2019 01 17.38841 10 20 23.70 +30 18 12.0    ~1HAI 21.3 GVNEOCPI52
     P10Lo2n  C2019 01 17.39091 10 20 23.58 +30 18 14.7    ~1HAI 21.7 GVNEOCPI52
     P10Lo2n  C2019 01 17.39340 10 20 23.49 +30 18 17.8    ~1HAI 21.7 GVNEOCPI52

Station data:
(F51) Pan-STARRS 1, Haleakala  (N20.707235 W156.255910)  US/Hawaii.
   Observers N. Primak, A. Schultz, S. Watters, J. Thiel, T. Goggia. Measurer
   PS1 Science Consortium. 1.8-m Ritchey-Chrétien + CCD.
(I52) Steward Observatory, Mt. Lemmon Station  (N32.442547 W110.788920)
   US/Arizona.  Observers B. M. Africano, E. J. Christensen, G. A. Farneth,
   D. C. Fuls, A. R. Gibbs, A. D. Grauer, H. Groeller, J. A. Johnson, R. A.
   Kowalski, S. M. Larson, G. J. Leonard, R. L. Seaman, F. C. Shelly. 1.0-m
   reflector + CCD.

Orbital elements:  P10Lo2n
   Perihelion 2018 Jun 9.087511 +/- 1.55 TT =  2:06:00 (JD 2458278.587511)
Epoch 2019 Jan 17.0 TT = JDT 2458500.5   Earth MOID: 0.6624   AutoNEOCP
M  58.45569551 +/- 0.7              (J2000 ecliptic)
n   0.26341778 +/- 0.00173          Peri.  289.01683 +/- 0.47
a   2.41012365 +/- 0.0106           Node   104.46952 +/- 0.12
e   0.3709360 +/- 0.00308           Incl.   22.25714 +/- 0.09
P   3.74                   H 18.7   G  0.15   U  8.5  
q 1.51612200 +/- 0.00139    Q 3.30412529 +/- 0.0218
From 11 observations 2019 Jan. 10-17; mean residual 0".16
Residuals in arcseconds: 
190110 F51  .03-  .07+    190112 I52  .05-  .08-    190117 I52  .03+  .20-    
190110 F51  .08+  .01-    190112 I52  .05+  .12+    190117 I52  .13-  .14-    
190110 F51  .04-  .05-    190112 I52  .38-  .17-    190117 I52  .10+  .34+    
190110 F51  .01-  .01-    190112 I52  .38+  .13+    

Ephemerides (geocentric):
Date (UTC) HH   RA              Dec         delta   r     elong  mag " sig PA
---- -- -- --  -------------   -----------  ------ ------ -----  --- ---- ---
2019 01 17 12  10 20 19.079   +30 20 09.80  1.3623 2.2469 146.1 21.9 .082  68
2019 01 17 13  10 20 17.373   +30 20 53.60  1.3622 2.2471 146.2 21.9 .091  67
2019 01 17 14  10 20 15.665   +30 21 37.39  1.3622 2.2473 146.2 21.9 .099  67
2019 01 17 15  10 20 13.952   +30 22 21.19  1.3621 2.2475 146.2 21.9 .108  67
2019 01 17 16  10 20 12.236   +30 23 04.98  1.3621 2.2476 146.3 21.9 .117  67
2019 01 17 17  10 20 10.516   +30 23 48.76  1.3620 2.2478 146.3 21.9 .126  67
2019 01 17 18  10 20 08.793   +30 24 32.54  1.3620 2.2480 146.4 21.9 .135  67
2019 01 17 19  10 20 07.066   +30 25 16.32  1.3619 2.2482 146.4 21.9 .144  66
2019 01 17 20  10 20 05.335   +30 26 00.09  1.3619 2.2484 146.4 21.9 .153  66
2019 01 17 21  10 20 03.601   +30 26 43.86  1.3619 2.2485 146.5 21.9 .163  66
2019 01 17 22  10 20 01.863   +30 27 27.62  1.3618 2.2487 146.5 21.9 .172  66
2019 01 17 23  10 20 00.121   +30 28 11.38  1.3618 2.2489 146.5 21.9 .182  66
2019 01 18 00  10 19 58.376   +30 28 55.14  1.3617 2.2491 146.6 21.9 .192  66
2019 01 18 01  10 19 56.627   +30 29 38.89  1.3617 2.2493 146.6 21.9 .201  66
2019 01 18 02  10 19 54.875   +30 30 22.63  1.3616 2.2494 146.7 21.9 .211  66
2019 01 18 03  10 19 53.119   +30 31 06.37  1.3616 2.2496 146.7 21.9 .221  66
2019 01 18 04  10 19 51.359   +30 31 50.11  1.3615 2.2498 146.7 21.9 .231  66
2019 01 18 05  10 19 49.596   +30 32 33.84  1.3615 2.2500 146.8 21.9 .242  65
2019 01 18 06  10 19 47.829   +30 33 17.57  1.3614 2.2502 146.8 21.9 .252  65
2019 01 18 07  10 19 46.059   +30 34 01.29  1.3614 2.2504 146.9 21.9 .262  65
2019 01 18 08  10 19 44.284   +30 34 45.01  1.3614 2.2505 146.9 21.9 .273  65
2019 01 18 09  10 19 42.507   +30 35 28.72  1.3613 2.2507 146.9 21.9 .283  65
2019 01 18 10  10 19 40.725   +30 36 12.42  1.3613 2.2509 147.0 21.9 .294  65
2019 01 18 11  10 19 38.940   +30 36 56.12  1.3612 2.2511 147.0 21.9 .305  65
2019 01 18 12  10 19 37.152   +30 37 39.82  1.3612 2.2513 147.1 21.9 .316  65
2019 01 18 13  10 19 35.360   +30 38 23.51  1.3611 2.2514 147.1 21.9 .327  65
2019 01 18 14  10 19 33.564   +30 39 07.19  1.3611 2.2516 147.1 21.9 .338  65
2019 01 18 15  10 19 31.765   +30 39 50.87  1.3611 2.2518 147.2 21.9 .349  65
2019 01 18 16  10 19 29.962   +30 40 34.54  1.3610 2.2520 147.2 21.9 .360  65
2019 01 18 17  10 19 28.156   +30 41 18.21  1.3610 2.2522 147.2 21.9 .372  65
2019 01 18 18  10 19 26.346   +30 42 01.87  1.3609 2.2523 147.3 21.9 .383  65
2019 01 18 19  10 19 24.532   +30 42 45.53  1.3609 2.2525 147.3 21.9 .395  65
2019 01 18 20  10 19 22.715   +30 43 29.18  1.3609 2.2527 147.4 21.9 .406  64
2019 01 18 21  10 19 20.894   +30 44 12.82  1.3608 2.2529 147.4 21.9 .418  64
2019 01 18 22  10 19 19.070   +30 44 56.46  1.3608 2.2531 147.4 21.9 .430  64
2019 01 18 23  10 19 17.242   +30 45 40.09  1.3608 2.2532 147.5 21.9 .442  64
2019 01 19 00  10 19 15.411   +30 46 23.71  1.3607 2.2534 147.5 21.9 .454  64
2019 01 19 01  10 19 13.576   +30 47 07.33  1.3607 2.2536 147.5 21.9 .466  64
2019 01 19 02  10 19 11.737   +30 47 50.94  1.3607 2.2538 147.6 21.9 .478  64
2019 01 19 03  10 19 09.895   +30 48 34.55  1.3606 2.2540 147.6 21.9 .491  64
2019 01 19 04  10 19 08.050   +30 49 18.14  1.3606 2.2541 147.7 21.9 .503  64
2019 01 19 05  10 19 06.201   +30 50 01.74  1.3606 2.2543 147.7 21.9 .516  64
2019 01 19 06  10 19 04.348   +30 50 45.32  1.3605 2.2545 147.7 21.9 .528  64
2019 01 19 07  10 19 02.492   +30 51 28.90  1.3605 2.2547 147.8 21.9 .541  64
2019 01 19 08  10 19 00.632   +30 52 12.47  1.3605 2.2549 147.8 21.9 .554  64
2019 01 19 09  10 18 58.769   +30 52 56.04  1.3604 2.2550 147.9 21.9 .567  64
2019 01 19 10  10 18 56.902   +30 53 39.59  1.3604 2.2552 147.9 21.9 .580  64
2019 01 19 11  10 18 55.032   +30 54 23.14  1.3604 2.2554 147.9 21.9 .593  64